[[{"header":{"parameterUnit":"m.s-1","parameterCategory":1,"la1":30.2992,"la2":30.254,"lo1":-89.0895,"lo2":-89.0443,"dy":0.0025,"dx":0.0025,"nx":19,"ny":19,"refTime":"2026-03-31T09:00:00:Z","depth":0,"parameterNumber":2,"parameterNumberName":"U-component_of_WINDS"},"data":[0,0,0,-3.9876,-3.9876,-3.9889,-3.9888,-3.9922,-3.9922,0,0,0,0,0,0,0,0,0,0,0,-3.9882,-3.9882,-3.9875,-3.9876,-3.9889,-3.9888,-3.9921,-3.9922,0,0,0,0,0,0,0,0,0,0,0,-3.9881,-3.9882,-3.9883,-3.9876,-3.9889,-3.9888,-3.9921,-3.9906,0,0,0,0,0,0,0,0,0,0,-3.9891,-3.9906,-3.9882,-3.9883,-3.9876,-3.9889,-3.9888,-3.9905,-3.9907,-3.9923,0,-3.994,0,-3.9932,-3.9925,-3.9925,0,0,0,-3.9869,-3.9905,-3.9899,-3.9883,-3.9876,-3.9889,-3.9881,-3.9906,-3.9908,-3.9926,-3.994,-3.9941,-3.9932,-3.9926,-3.9926,-4.0041,-4.0042,0,0,-3.9868,-3.9889,-3.9898,-3.9901,-3.99,-3.9881,-3.9881,-3.9907,-3.9924,-3.994,-3.9941,-3.9933,-3.9926,-3.9926,-4.0041,-4.0042,0,0,0,-3.9871,-3.9889,-3.9883,-3.99,-3.9901,-3.9881,-3.9882,-3.9923,-3.9919,-3.9942,-3.9933,-3.9926,-3.9927,-4.004,-4.0041,-4.0103,0,0,0,-3.987,-3.9891,-3.9883,-3.9896,-3.9901,-3.9912,-3.9898,-3.9917,-3.9919,-3.9933,-3.9926,-3.9927,-4.0039,-4.004,-4.0099,-4.0129,0,0,0,-3.9878,-3.9892,-3.9897,-3.9897,-3.9903,-3.9911,-3.9908,-3.9917,-3.9915,-3.9925,-3.9927,-4.0038,-4.004,-4.0096,-4.0123,-4.0164,0,0,0,-3.9892,-3.9954,-3.9898,-3.9964,-3.9903,-3.995,-3.9908,-3.9942,-3.9959,-3.9926,-4.0039,-4.0041,-4.0095,-4.012,-4.016,-4.02,-4.0219,0,0,-3.9982,-3.9965,-4.0002,-3.9953,-4.0015,-3.9947,-4.0018,-4.0014,-3.9996,-4.0028,-4.003,-4.0101,-4.0123,-4.0163,-4.0323,-4.0339,0,0,0,-4.0038,-4.0064,-4.0076,-4.0093,-4.0091,-4.0091,-4.0074,-4.0073,-4.0098,-4.0017,-4.0127,-4.0139,-4.0162,-4.018,-4.0193,-4.021,-4.0051,-4.005,-4.005,-4.0195,-4.0168,-4.0227,-4.0201,-4.0219,-4.02,-4.0211,-4.0206,-4.0175,-4.0202,-4.021,-4.031,-4.0332,-4.0342,-4.036,-4.0231,-4.0231,-4.0231,-4.0231,-4.0322,-4.0354,-4.0311,-4.0352,-4.0324,-4.0359,-4.0344,-4.0321,-4.0349,-4.0302,-4.0321,-4.027,-4.0359,-4.0374,-4.0236,-4.0235,-4.0234,-4.0234,-4.0234,-4.0419,-4.043,-4.0427,-4.0447,-4.0467,-4.044,-4.0468,-4.0443,-4.0418,-4.0437,-4.0442,-4.044,-4.0434,-4.0442,-4.0442,-4.0442,-4.0443,-4.0443,-4.0443,-4.0521,-4.0515,-4.0542,-4.0545,-4.0551,-4.0557,-4.054,-4.0546,-4.0546,-4.0525,-4.0524,-4.049,-4.0374,-4.0344,-4.0448,-4.0447,-4.0447,-4.0446,-4.0446,-4.0655,-4.062,-4.0661,-4.0668,-4.0669,-4.0689,-4.0656,-4.0671,-4.0673,-4.0687,-4.0649,-4.0569,-4.055,-4.0539,-4.0514,-4.0656,-4.0656,-4.0656,-4.0656,-4.0735,-4.0724,-4.0759,-4.0771,-4.0781,-4.0755,-4.0802,-4.0789,-4.0771,-4.077,-4.0746,-4.0711,-4.0702,-4.0689,-4.0675,-4.065,-4.0824,-4.0824,-4.0824,-4.0815,-4.0803,-4.0848,-4.0828,-4.0827,-4.0827,-4.087,-4.0886,-4.0858,-4.0831,-4.0768,-4.0761,-4.0705,-4.0688,-4.0657,-4.0636,-4.0591,0,0]},{"header":{"parameterUnit":"m.s-1","parameterCategory":1,"la1":30.2992,"la2":30.254,"lo1":-89.0895,"lo2":-89.0443,"dy":0.0025,"dx":0.0025,"nx":19,"ny":19,"refTime":"2026-03-31T09:00:00:Z","depth":0,"parameterNumber":3,"parameterNumberName":"V-component_of_WINDS"},"data":[0,0,0,3.2586,3.2588,3.2693,3.2693,3.283,3.2831,0,0,0,0,0,0,0,0,0,0,0,3.2554,3.2555,3.2585,3.2588,3.2693,3.2693,3.2829,3.2831,0,0,0,0,0,0,0,0,0,0,0,3.2554,3.2555,3.2556,3.2588,3.2693,3.2693,3.2829,3.2749,0,0,0,0,0,0,0,0,0,0,3.2647,3.2618,3.2555,3.2556,3.2589,3.2693,3.2693,3.2746,3.2754,3.2783,0,3.2807,0,3.2821,3.284,3.2841,0,0,0,3.2588,3.2611,3.2639,3.2556,3.259,3.2692,3.2646,3.2751,3.2761,3.2795,3.2809,3.2814,3.2823,3.2841,3.2842,3.3005,3.3005,0,0,3.2582,3.2573,3.2632,3.2646,3.2628,3.2642,3.2649,3.2757,3.2772,3.2809,3.2817,3.2826,3.2842,3.2843,3.3004,3.3005,0,0,0,3.2566,3.2569,3.2595,3.264,3.2659,3.2645,3.2653,3.2767,3.2776,3.2818,3.2827,3.2843,3.2844,3.3003,3.3004,3.3034,0,0,0,3.2562,3.2559,3.2592,3.2588,3.2657,3.2714,3.2661,3.2769,3.2781,3.2826,3.2843,3.2846,3.3002,3.3004,3.3032,3.305,0,0,0,3.2548,3.2558,3.2573,3.2587,3.2632,3.2712,3.2728,3.2771,3.2787,3.2841,3.2846,3.3002,3.3003,3.3029,3.3046,3.3093,0,0,0,3.2529,3.2596,3.2573,3.2651,3.2631,3.2729,3.2727,3.2801,3.285,3.2843,3.3002,3.3004,3.3029,3.3044,3.309,3.3131,3.3146,0,0,3.2608,3.2605,3.2652,3.2635,3.2735,3.2714,3.282,3.2873,3.2887,3.2965,3.2969,3.3032,3.3046,3.3092,3.3235,3.3247,0,0,0,3.2674,3.2708,3.2736,3.2784,3.2827,3.2868,3.2906,3.2927,3.2995,3.2925,3.3061,3.3069,3.3097,3.3117,3.3127,3.3153,3.3012,3.3012,3.3012,3.2772,3.2787,3.2867,3.2896,3.2942,3.2984,3.3024,3.3059,3.3058,3.3091,3.3114,3.3199,3.3222,3.323,3.3257,3.3136,3.3136,3.3136,3.3136,3.289,3.2942,3.2943,3.3021,3.3038,3.3104,3.3148,3.3147,3.3212,3.3182,3.3207,3.3174,3.3244,3.3268,3.3139,3.3138,3.3138,3.3138,3.3137,3.2958,3.2985,3.301,3.3084,3.3139,3.3166,3.323,3.3242,3.3254,3.3278,3.3307,3.3306,3.3309,3.3291,3.3291,3.3291,3.3292,3.3292,3.3292,3.3018,3.3045,3.3097,3.3152,3.3187,3.3234,3.3279,3.3314,3.3355,3.3359,3.336,3.3359,3.3247,3.322,3.3297,3.3296,3.3295,3.3295,3.3295,3.3135,3.3112,3.3192,3.3227,3.3295,3.3351,3.3366,3.3437,3.3467,3.3499,3.3494,3.3408,3.3406,3.3398,3.3375,3.3488,3.3488,3.3488,3.3488,3.3193,3.3194,3.3281,3.3337,3.3393,3.3416,3.351,3.3548,3.3582,3.3603,3.3588,3.3559,3.355,3.3553,3.3541,3.3521,3.3668,3.3669,3.3669,3.3268,3.3275,3.3352,3.3386,3.3441,3.3489,3.3579,3.3644,3.3678,3.3676,3.362,3.3612,3.3566,3.3549,3.3546,3.3528,3.349,0,0]}]]